Location: *
(31.2983°S, 151.4094°E)
Time: 04:30:59
(UTC+00:00)

CZ-4B R/B - Pass Details

Date: 25 August 2019
Orbit: 809 x 881 km, 99.1° (Epoch: 18 September)

Event Time Altitude Azimuth Distance (km) Brightness Sun altitude
Rises 18:04:30 0° 28° (NNE) 3,415 6.6 -29.4°
Reaches altitude 10° 18:06:56 10° 33° (NNE) 2,475 5.9 -28.8°
Maximum altitude 18:12:13 51° 107° (ESE) 1,061 4.0 -27.7°
Drops below altitude 10° 18:17:28 10° 181° (S) 2,458 5.6 -26.6°
Sets 18:19:52 0° 186° (S) 3,389 6.3 -26.1°
